• MPC Preparation (Info)

  • MPEC 1995-L05 : 1995 KG1

    The following Minor Planet Electronic Circular may be linked-to from your own Web pages, but must not otherwise be redistributed electronically.

    A form allowing access to any MPEC is at the bottom of this page.


    Read MPEC 1995-L04 Read MPEC 1995-L06


    M.P.E.C. 1995-L05                                Issued 1995 June 5, 22:24 UT
    
         The Minor Planet Electronic Circulars contain information on unusual
             minor planets and routine data on comets.  They are published
       on behalf of Commission 20 of the International Astronomical Union by the
              Minor Planet Center, Smithsonian Astrophysical Observatory,
                              Cambridge, MA 02138, U.S.A.
    
                 BMARSDEN@CFA.HARVARD.EDU or GWILLIAMS@CFA.HARVARD.EDU
    
                                       1995 KG1
    
                               Revision to MPEC 1995-L01
    
    Observations:
         J95K01G  C1995 06 04.48580 14 39 39.06 -19 07 06.6                      413
         J95K01G  C1995 06 04.48789 14 39 38.86 -19 07 15.0                      413
         J95K01G  C1995 06 04.49434 14 39 38.28 -19 07 44.5                      413
         J95K01G  C1995 06 04.49985 14 39 37.76 -19 08 10.2                      413
         J95K01G  C1995 06 04.50419 14 39 37.34 -19 08 28.4                      413
         J95K01G  C1995 06 05.48470 14 38 15.18 -20 20 36.5                      413
         J95K01G  C1995 06 05.48867 14 38 14.81 -20 20 54.2                      413
    
    Observer details:
    413 Siding Spring Observatory.  Observers R. H. McNaught, G. J. Garradd,
        D. J. Asher, D. I. Steel.  Measurers R. H. McNaught, D. J. Asher.  1.0-m
        reflector + CCD.
    
    Orbital elements:
    1995 KG1
    Epoch 1995 May 23.0 TT = JDT 2449860.5                  Williams
    M   4.81346              (2000.0)            P               Q
    n   0.21525229     Peri.  154.66443     -0.73055375     +0.50200567
    a   2.7574281      Node    63.54664     -0.68071855     -0.48180643
    e   0.5215487      Incl.   31.13399     -0.05397658     -0.71822898
    P   4.58           H    19.5          G   0.15
    From 17 observations 1995 May 31-June 5.
    
    Ephemeris:
    1995 KG1                 a,e,i = 2.76, 0.52, 31                  q = 1.3193
    Date    TT    R. A. (2000) Decl.     Delta      r     Elong.  Phase     V
    1995 06 02    14 43.44   -15 55.3    0.383    1.364   152.3    20.2    19.1
    1995 06 04    14 40.36   -18 30.6    0.393    1.370   150.3    21.5    19.2
    1995 06 06    14 37.56   -20 57.7    0.405    1.376   148.2    22.8    19.3
    1995 06 08    14 35.07   -23 16.4    0.418    1.382   146.1    24.2    19.4
    1995 06 10    14 32.88   -25 26.5    0.432    1.388   144.0    25.5    19.6
    1995 06 12    14 31.00   -27 28.3    0.448    1.395   141.9    26.7    19.7
    1995 06 14    14 29.42   -29 22.0    0.464    1.402   139.8    27.9    19.8
    1995 06 16    14 28.16   -31 08.0    0.480    1.409   137.8    28.9    19.9
    1995 06 18    14 27.19   -32 46.7    0.498    1.417   135.9    29.9    20.0
    1995 06 20    14 26.53   -34 18.5    0.516    1.425   134.1    30.8    20.2
    1995 06 22    14 26.17   -35 44.0    0.535    1.433   132.3    31.6    20.3
    1995 06 24    14 26.10   -37 03.5    0.555    1.441   130.6    32.4    20.4
    1995 06 26    14 26.32   -38 17.5    0.575    1.449   129.0    33.0    20.5
    1995 06 28    14 26.83   -39 26.5    0.596    1.458   127.5    33.6    20.6
    1995 06 30    14 27.61   -40 30.9    0.617    1.467   126.0    34.1    20.7
    1995 07 02    14 28.66   -41 31.1    0.638    1.476   124.6    34.5    20.8
    1995 07 04    14 29.97   -42 27.3    0.660    1.485   123.3    34.9    20.9
    1995 07 06    14 31.54   -43 19.9    0.682    1.495   122.0    35.3    21.0
    1995 07 08    14 33.35   -44 09.3    0.705    1.504   120.7    35.5    21.1
    1995 07 10    14 35.40   -44 55.6    0.728    1.514   119.5    35.8    21.2
    1995 07 12    14 37.67   -45 39.0    0.751    1.524   118.3    36.0    21.3
    
    Gareth V. Williams                                            M.P.E.C. 1995-L05
    

    Read MPEC 1995-L04 Read MPEC 1995-L06


    MPEC number:

    Enter an MPEC number in one of the following forms:

    • 1997-B01 (the full form)
    • J97B01 (the packed version of the full form)
    • B01 (the abbreviated form)